FW2867 Weather Reports


time (UTC)temp
C
wind
direction
speed
KPH
gust
KPH
rain 1hr
cm
rain 24hr
cm
rain mn
cm
humidity
%
barometer
mb
20260502163024 17 304 4.8 17.7 0.00 0.00 0.00 27 1011.3
20260502161515 16 192 3.2 14.5 0.00 0.00 0.00 30 1011.2
20260502151508 14 163 9.7 19.3 0.00 0.00 0.00 33 1011.8
20260502123027 5 185 12.9 17.7 0.00 0.00 0.00 49 1014.2
20260502121527 3 183 14.5 19.3 0.00 0.00 0.00 50 1014.3
20260502114525 2 171 12.9 17.7 0.00 0.00 0.00 50 1014.3
20260502113024 2 197 11.3 16.1 0.00 0.00 0.00 50 1014.5
20260502111522 2 193 9.7 16.1 0.00 0.00 0.00 50 1014.7
20260502110024 1 161 9.7 14.5 0.00 0.00 0.00 52 1014.9
20260502104518 0 150 6.4 11.3 0.00 0.00 0.00 51 1015.1
20260502103017 1 139 6.4 11.3 0.00 0.00 0.00 50 1015.2
20260502101516 1 132 8.0 12.9 0.00 0.00 0.00 50 1015.4
20260502091505 2 140 9.7 14.5 0.00 0.00 0.00 43 1016.3
20260502080104 3 175 14.5 19.3 0.00 0.00 0.00 42 1017.6
20260502070051 3 190 9.7 14.5 0.00 0.00 0.00 39 1018.5
20260502064545 3 180 8.0 12.9 0.00 0.00 0.00 39 1018.5
20260502063040 3 192 8.0 12.9 0.00 0.00 0.00 39 1018.8
20260502061537 3 181 3.2 8.0 0.00 0.00 0.00 38 1018.8
20260502060034 2 151 1.6 8.0 0.00 0.00 0.00 38 1019.0
20260502054536 3 150 1.6 8.0 0.00 0.00 0.00 37 1019.0
20260502053032 3 146 3.2 6.4 0.00 0.00 0.00 36 1019.1
20260502051534 3 144 3.2 4.8 0.00 0.00 0.00 35 1019.1
20260502050029 3 144 1.6 3.2 0.00 0.00 0.00 35 1019.1
20260502044529 4 144 1.6 6.4 0.00 0.00 0.00 35 1019.1
20260502043028 4 143 0.0 3.2 0.00 0.00 0.00 32 1019.2
20260502041531 5 143 0.0 3.2 0.00 0.00 0.00 31 1019.4
20260502040037 5 142 1.6 4.8 0.00 0.00 0.00 31 1019.5
20260502034525 5 142 1.6 4.8 0.00 0.00 0.00 29 1019.6
20260502033025 5 139 4.8 8.0 0.00 0.00 0.00 27 1019.6
20260502031525 6 130 4.8 9.7 0.00 0.00 0.00 27 1019.6
20260502030024 7 126 6.4 9.7 0.00 0.00 0.00 26 1019.6
20260502024537 8 103 6.4 9.7 0.00 0.00 0.00 24 1019.6
20260502023024 7 90 4.8 9.7 0.00 0.00 0.00 26 1019.6
20260502021523 8 82 3.2 6.4 0.00 0.00 0.00 22 1019.5
20260502020023 9 74 6.4 8.0 0.00 0.00 0.00 21 1019.6
20260502014533 11 19 4.8 6.4 0.00 0.00 0.00 21 1019.6
20260502013022 11 5 1.6 4.8 0.00 0.00 0.00 20 1019.7
20260502011522 12 5 0.0 1.6 0.00 0.00 0.00 20 1019.8
20260502010021 12 5 0.0 4.8 0.00 0.00 0.00 19 1019.8
20260502004520 12 5 3.2 4.8 0.00 0.00 0.00 19 1020.0
20260502003021 13 5 0.0 8.0 0.00 0.00 0.00 18 1020.0
20260502001521 13 296 4.8 14.5 0.00 0.00 0.00 18 1020.1
20260502000017 13 283 3.2 12.9 0.00 0.00 0.00 17 1020.2
20260501234515 13 16 6.4 17.7 0.00 0.00 0.00 17 1020.3
20260501233015 13 279 8.0 14.5 0.00 0.00 0.00 17 1020.5
20260501231518 13 332 3.2 11.3 0.00 0.00 0.00 17 1020.6
20260501230011 13 302 4.8 11.3 0.00 0.00 0.00 18 1020.6
20260501224514 13 21 4.8 12.9 0.00 0.00 0.00 17 1020.7
20260501223010 13 40 3.2 8.0 0.00 0.00 0.00 18 1020.7
20260501221509 13 320 8.0 14.5 0.00 0.00 0.00 18 1020.9
20260501220010 13 291 4.8 17.7 0.00 0.00 0.00 19 1020.9
20260501214507 13 9 11.3 19.3 0.00 0.00 0.00 18 1021.1
20260501213005 12 34 0.0 17.7 0.00 0.00 0.00 20 1021.2
20260501211503 12 27 12.9 17.7 0.00 0.00 0.00 18 1021.3
20260501210003 12 80 4.8 16.1 0.00 0.00 0.00 18 1021.4
20260501204559 12 178 8.0 19.3 0.00 0.00 0.00 20 1021.5
20260501203107 12 184 8.0 17.7 0.00 0.00 0.00 20 1021.6
20260501201559 12 266 9.7 17.7 0.00 0.00 0.00 20 1021.8
20260501200056 11 296 12.9 16.1 0.00 0.00 0.00 21 1021.9
20260501194556 12 355 12.9 45.1 0.00 0.00 0.00 22 1022.0
20260501193054 11 61 9.7 20.9 0.00 0.00 0.00 22 1022.1
20260501191551 11 57 11.3 25.7 0.00 0.00 0.00 24 1022.2
20260501190050 11 142 11.3 19.3 0.00 0.00 0.00 25 1022.2
20260501184605 10 190 4.8 12.9 0.00 0.00 0.00 25 1022.5
20260501183055 10 73 6.4 9.7 0.00 0.00 0.00 26 1022.7
20260501181546 10 77 11.3 19.3 0.00 0.00 0.00 26 1022.8